Voltar ao catálogo

ATLAS 5 CENTAUR DEB

AtivoHEO
NORAD 44652·DEBRIS·🇺🇸 United States

Lançado Oct 17, 2018 de Cape Canaveral Space Force Station

Loading…

Próximas Passagens (próximas 24 horas)

TLE

ObsoletoSource: Space-Track

Época: Aug 17, 2026, 10:48 UTC

1 44652U 18079N   26229.45033039 -.00000143  00000-0  00000-0 0  9993
2 44652  13.2193  29.1980 4426134 334.6294   8.8621  1.86501360 53313

Acompanhe ATLAS 5 CENTAUR DEB em tempo real com AllMySat

Download on the App Store